Location: Pensacola
(30.4142°N, 87.2155°W)
Time: 03:27:24
(UTC-05:00)

Hubble Space Telescope - Pass Details

Date: 11 February 2023
Orbit: 526 x 530 km, 28.5° (Epoch: 01 April)

Event Time Altitude Azimuth Distance (km) Brightness Sun altitude
Rises 18:46:36 0° 230° (SW) 2,643 5.3 -16.2°
Reaches altitude 10° 18:49:07 10° 217° (SW) 1,754 4.0 -16.7°
Maximum altitude 18:52:31 26° 160° (SSE) 1,057 2.1 -17.5°
Enters shadow 18:53:23 24° 138° (SE) 1,117 2.0 -17.7°
